DLH3KP EDDL-VTBS

Flight info

Callsign DLH3KP
Flight time N/A
Altitude 33000
Route DODEN7Z DODEN Y853 BOMBI DCT DETEV DCT DINKU DCT ESEGA DCT SASAL DCT INVED/N0494F350 DCT RONBU DCT UDROS UM859 KARDE UN644 ROLIN DCT TETRO DCT BARAD M747 SUBUT T923 ERLEV M11 RODAR A909 ABEKO/N0498F370 A909 LEMOD N644 DI M875 LAPAN B209 JJS P646 IBITA/N0493F390 P646 TARED WILLA1C
Aircraft A388/J-SADE2E3FGHIJ3J4J5M1RWXY/LB1D1

Departure

Time N/A
Airport Düsseldorf Airport (EDDL)

Arrival

Time 2026-05-01 07:53
Airport Suvarnabhumi Airport (VTBS)
Time Latitude Longitude Altitude Speed Heading
2026-05-01 07:23 14.96849 98.46924 35879 ft 527 kts 118°
2026-05-01 07:24 14.91807 98.57033 35886 ft 527 kts 118°
2026-05-01 07:24 14.88448 98.63759 35884 ft 527 kts 118°
2026-05-01 07:25 14.85103 98.70452 35891 ft 527 kts 118°
2026-05-01 07:25 14.81730 98.77188 35879 ft 527 kts 118°
2026-05-01 07:26 14.78363 98.83918 35874 ft 527 kts 118°
2026-05-01 07:26 14.74985 98.90659 35783 ft 529 kts 118°
2026-05-01 07:26 14.73294 98.94032 35561 ft 527 kts 119°
2026-05-01 07:27 14.71614 98.97383 35318 ft 525 kts 119°
2026-05-01 07:27 14.69935 99.00727 35095 ft 526 kts 119°
2026-05-01 07:27 14.68245 99.04094 34858 ft 529 kts 119°
2026-05-01 07:27 14.66542 99.07482 34629 ft 529 kts 119°
2026-05-01 07:28 14.64844 99.10860 34396 ft 531 kts 120°
2026-05-01 07:28 14.63143 99.14242 34174 ft 533 kts 120°
2026-05-01 07:28 14.61456 99.17595 33953 ft 532 kts 120°
2026-05-01 07:28 14.59752 99.20983 33676 ft 529 kts 120°
2026-05-01 07:29 14.58070 99.24324 33226 ft 523 kts 120°
2026-05-01 07:29 14.56395 99.27651 32571 ft 522 kts 120°
2026-05-01 07:29 14.54713 99.30985 31685 ft 525 kts 119°
2026-05-01 07:29 14.53030 99.34323 30997 ft 522 kts 119°
2026-05-01 07:30 14.51365 99.37627 30561 ft 514 kts 119°
2026-05-01 07:30 14.49713 99.40904 29876 ft 511 kts 119°
2026-05-01 07:30 14.48068 99.44163 28990 ft 512 kts 119°
2026-05-01 07:30 14.46434 99.47397 28419 ft 504 kts 119°
2026-05-01 07:31 14.44967 99.50631 27978 ft 495 kts 112°
2026-05-01 07:31 14.43340 99.60990 26039 ft 484 kts 94°
2026-05-01 07:32 14.42918 99.67872 24776 ft 475 kts 94°
2026-05-01 07:32 14.42705 99.71195 24136 ft 470 kts 95°
2026-05-01 07:33 14.42286 99.77741 23318 ft 441 kts 95°
2026-05-01 07:33 14.42088 99.80852 22732 ft 429 kts 95°
2026-05-01 07:33 14.41700 99.86916 21208 ft 417 kts 95°
2026-05-01 07:34 14.41510 99.89882 20435 ft 413 kts 95°
2026-05-01 07:34 14.40982 99.95708 18946 ft 402 kts 104°
2026-05-01 07:34 14.40354 99.98513 18198 ft 399 kts 104°
2026-05-01 07:35 14.39734 100.01289 17460 ft 394 kts 104°
2026-05-01 07:35 14.39126 100.04028 16739 ft 388 kts 104°
2026-05-01 07:35 14.38532 100.06715 16026 ft 383 kts 104°
2026-05-01 07:35 14.37947 100.09368 15472 ft 377 kts 104°
2026-05-01 07:36 14.37366 100.12000 14951 ft 375 kts 104°
2026-05-01 07:36 14.36790 100.14610 14453 ft 371 kts 104°
2026-05-01 07:36 14.36218 100.17201 13969 ft 368 kts 104°
2026-05-01 07:36 14.35655 100.19750 13489 ft 364 kts 104°
2026-05-01 07:37 14.34536 100.24817 12378 ft 359 kts 104°
2026-05-01 07:37 14.33983 100.27313 11887 ft 355 kts 104°
2026-05-01 07:37 14.33434 100.29789 11366 ft 352 kts 104°
2026-05-01 07:38 14.32893 100.32235 10871 ft 349 kts 104°
2026-05-01 07:38 14.32354 100.34667 10470 ft 344 kts 104°
2026-05-01 07:38 14.31344 100.39233 10124 ft 311 kts 104°
2026-05-01 07:39 14.30874 100.41356 10021 ft 298 kts 105°
2026-05-01 07:39 14.30413 100.43427 9697 ft 296 kts 104°
2026-05-01 07:39 14.29497 100.47538 8938 ft 292 kts 104°
2026-05-01 07:40 14.29045 100.49574 8582 ft 290 kts 105°
2026-05-01 07:40 14.28595 100.51595 8212 ft 288 kts 104°
2026-05-01 07:40 14.28150 100.53595 7971 ft 286 kts 104°
2026-05-01 07:40 14.27679 100.55573 7904 ft 283 kts 111°
2026-05-01 07:41 14.26661 100.57273 7831 ft 278 kts 134°
2026-05-01 07:41 14.25293 100.58681 7646 ft 278 kts 136°
2026-05-01 07:41 14.22558 100.61447 6938 ft 275 kts 135°
2026-05-01 07:42 14.21652 100.62373 6683 ft 275 kts 135°
2026-05-01 07:42 14.19858 100.64220 6297 ft 269 kts 134°
2026-05-01 07:42 14.18975 100.65133 6008 ft 271 kts 134°
2026-05-01 07:42 14.17237 100.66933 5603 ft 264 kts 134°
2026-05-01 07:43 14.15946 100.68269 5116 ft 262 kts 134°
2026-05-01 07:43 14.15086 100.69158 4977 ft 256 kts 134°
2026-05-01 07:43 14.12637 100.71696 4914 ft 246 kts 134°
2026-05-01 07:44 14.10309 100.74099 4926 ft 231 kts 134°
2026-05-01 07:44 14.08031 100.76455 4928 ft 232 kts 134°
2026-05-01 07:45 14.06890 100.77635 4916 ft 235 kts 134°
2026-05-01 07:45 14.05738 100.78826 4789 ft 233 kts 134°
2026-05-01 07:45 14.04583 100.80019 4581 ft 237 kts 135°
2026-05-01 07:45 14.03429 100.81203 4344 ft 231 kts 137°
2026-05-01 07:46 14.02032 100.81978 4070 ft 230 kts 167°
2026-05-01 07:46 14.00424 100.81909 3632 ft 237 kts 194°
2026-05-01 07:46 13.97303 100.81023 3421 ft 228 kts 193°
2026-05-01 07:47 13.95817 100.80628 3414 ft 210 kts 192°
2026-05-01 07:47 13.94473 100.80273 3436 ft 190 kts 193°
2026-05-01 07:47 13.93215 100.79944 3424 ft 189 kts 192°
2026-05-01 07:47 13.91916 100.79604 3385 ft 189 kts 192°
2026-05-01 07:48 13.89439 100.78955 2470 ft 183 kts 193°
2026-05-01 07:48 13.88207 100.78631 1831 ft 181 kts 194°
2026-05-01 07:48 13.86982 100.78309 1599 ft 185 kts 194°
2026-05-01 07:49 13.85795 100.77998 1541 ft 168 kts 194°
2026-05-01 07:49 13.83660 100.77435 1545 ft 155 kts 194°
2026-05-01 07:49 13.82630 100.77162 1539 ft 152 kts 193°
2026-05-01 07:50 13.81604 100.76893 1545 ft 153 kts 194°
2026-05-01 07:50 13.79543 100.76348 1544 ft 152 kts 194°
2026-05-01 07:50 13.78510 100.76076 1549 ft 160 kts 193°
2026-05-01 07:51 13.77435 100.75796 1551 ft 158 kts 194°
2026-05-01 07:51 13.76395 100.75522 1430 ft 150 kts 194°
2026-05-01 07:51 13.75409 100.75267 1147 ft 145 kts 195°
2026-05-01 07:52 13.73477 100.74746 762 ft 141 kts 195°
2026-05-01 07:52 13.72534 100.74485 641 ft 143 kts 193°
2026-05-01 07:52 13.71568 100.74247 367 ft 139 kts 193°
2026-05-01 07:53 13.69674 100.73754 44 ft 140 kts 193°
2026-05-01 07:53 13.68798 100.73528 21 ft 102 kts 193°
2026-05-01 07:53 13.68438 100.73458 17 ft 33 kts 179°
2026-05-01 07:53 13.68259 100.73482 19 ft 15 kts 163°